Ephrata, WA

3:03 AM PST on December 14, 2017 (GMT -0800)
Ephrata Municipal

Weather History for KEPH - May, 2013

Change the Weather History Date:

Wednesday, May 22, 2013

  Actual Average Record
Temperature  
Mean Temperature 48 °F 61 °F  
Max Temperature 54 °F 74 °F 96 °F (1958)
Min Temperature 42 °F 48 °F 31 °F (1960)
Degree Days  
Heating Degree Days 17 5  
Month to date heating degree days 88 173  
Since 1 July heating degree days 5411 5870  
Cooling Degree Days 0 1  
Month to date cooling degree days 57 19  
Year to date cooling degree days 57 21  
Moisture  
Dew Point 39 °F    
Average Humidity 70    
Maximum Humidity 89    
Minimum Humidity 50    
Precipitation  
Precipitation 0.16 in 0.03 in 0.18 in (1990)
Month to date precipitation 0.33 0.42  
Year to date precipitation 1.85 3.23  
Sea Level Pressure  
Sea Level Pressure 29.84 in    
Wind  
Wind Speed 10 mph (ESE)    
Max Wind Speed 17 mph    
Max Gust Speed 23 mph    
Visibility 10 miles    
Events Rain    
T = Trace of Precipitation, MM = Missing Value Source: NWS Daily Summary

Daily Weather History Graph

Daily Weather History Graph

Search for Another Location

Airport or City:

Trip Planner

Search our weather history database for the weather conditions in past years. The results will help you decide how hot, cold, wet, or windy it might be!

Date:

Astronomy

May. 22, 2013 Rise Set
Actual Time 5:13 AM PDT 8:36 PM PDT
Civil Twilight 4:35 AM PDT 9:14 PM PDT
Nautical Twilight 3:46 AM PDT 10:04 PM PDT
Astronomical Twilight 2:42 AM PDT 11:08 PM PDT
Moon 5:56 PM PDT (5/22) 3:32 AM PDT (5/22)
Length of Visible Light 16h 38m
Length of Day
15h 23m
Waxing Gibbous, 92% of the Moon is Illuminated
May 22
Waxing Gibbous
May 24
Full
May 31
Last Quarter
Jun 8
New
Jun 16
First Quarter

Hourly Weather History & Observations

Time (PDT) Temp. Windchill Dew Point Humidity Pressure Visibility Wind Dir Wind Speed Gust Speed Precip Events Conditions
12:45 AM 48.2 °F - 42.8 °F 82% 29.75 in 10.0 mi NE 4.6 mph - 0.00 in   Overcast
12:53 AM 48.0 °F - 43.0 °F 83% 29.76 in 10.0 mi East 5.8 mph - 0.00 in   Overcast
1:11 AM 46.4 °F 42.9 °F 41.0 °F 81% 29.76 in 10.0 mi East 6.9 mph - N/A   Overcast
1:51 AM 46.4 °F 41.5 °F 41.0 °F 81% 29.75 in 10.0 mi East 10.4 mph - N/A   Overcast
1:53 AM 46.0 °F 40.2 °F 41.0 °F 83% 29.76 in 10.0 mi East 12.7 mph - N/A   Overcast
2:18 AM 44.6 °F 39.2 °F 41.0 °F 87% 29.76 in 10.0 mi ENE 10.4 mph - N/A   Overcast
2:21 AM 44.6 °F 39.2 °F 41.0 °F 87% 29.75 in 10.0 mi ENE 10.4 mph - N/A   Overcast
2:29 AM 44.6 °F 40.2 °F 42.8 °F 93% 29.75 in 10.0 mi ENE 8.1 mph - N/A   Overcast
2:53 AM 46.0 °F 41.9 °F 43.0 °F 89% 29.77 in 10.0 mi NE 8.1 mph - N/A   Overcast
3:53 AM 45.0 °F 38.9 °F 42.1 °F 90% 29.78 in 10.0 mi SE 12.7 mph - 0.00 in Rain Light Rain
4:53 AM 43.0 °F 37.2 °F 39.9 °F 89% 29.78 in 10.0 mi ESE 10.4 mph - 0.01 in Rain Light Rain
5:53 AM 43.0 °F 36.4 °F 39.9 °F 89% 29.79 in 10.0 mi ESE 12.7 mph - N/A   Overcast
6:53 AM 42.1 °F 35.7 °F 39.0 °F 89% 29.81 in 10.0 mi ESE 11.5 mph - N/A   Overcast
7:53 AM 42.1 °F 35.7 °F 39.0 °F 89% 29.83 in 10.0 mi ESE 11.5 mph - N/A   Overcast
8:24 AM 42.8 °F 37.0 °F 37.4 °F 81% 29.82 in 10.0 mi ESE 10.4 mph - N/A   Overcast
8:53 AM 43.0 °F 36.0 °F 37.9 °F 82% 29.84 in 10.0 mi SE 13.8 mph - N/A   Overcast
9:53 AM 45.0 °F 39.3 °F 37.0 °F 74% 29.85 in 10.0 mi SE 11.5 mph - N/A   Overcast
10:53 AM 45.0 °F 40.6 °F 37.0 °F 74% 29.86 in 10.0 mi SE 8.1 mph - N/A   Overcast
11:50 AM 46.4 °F 42.9 °F 37.4 °F 71% 29.86 in 10.0 mi SE 6.9 mph - N/A   Overcast
11:53 AM 46.9 °F - 37.0 °F 68% 29.88 in 10.0 mi ESE 11.5 mph - N/A   Overcast
12:53 PM 50.0 °F - 36.0 °F 59% 29.88 in 10.0 mi SE 8.1 mph - N/A   Overcast
1:53 PM 52.0 °F - 36.0 °F 54% 29.88 in 10.0 mi SE 12.7 mph 21.9 mph N/A   Overcast
2:53 PM 51.1 °F - 35.1 °F 54% 29.90 in 10.0 mi SE 15.0 mph 19.6 mph N/A   Overcast
3:53 PM 52.0 °F - 33.1 °F 49% 29.90 in 10.0 mi SE 10.4 mph - N/A   Overcast
4:53 PM 51.1 °F - 35.1 °F 54% 29.91 in 10.0 mi SSE 11.5 mph - 0.00 in Rain Light Rain
5:53 PM 52.0 °F - 34.0 °F 50% 29.91 in 10.0 mi SSE 10.4 mph - 0.00 in   Partly Cloudy
6:53 PM 50.0 °F - 35.1 °F 57% 29.92 in 10.0 mi SSE 12.7 mph - N/A   Overcast
7:53 PM 50.0 °F - 36.0 °F 59% 29.94 in 10.0 mi SE 10.4 mph - N/A   Overcast
8:53 PM 48.0 °F - 39.0 °F 71% 29.95 in 10.0 mi SSE 11.5 mph - 0.04 in   Overcast
9:53 PM 45.0 °F 39.7 °F 41.0 °F 86% 29.97 in 10.0 mi ESE 10.4 mph - 0.11 in   Overcast
10:53 PM 45.0 °F 41.2 °F 39.9 °F 82% 29.98 in 10.0 mi East 6.9 mph - N/A   Partly Cloudy
11:53 PM 42.1 °F 37.7 °F 39.0 °F 89% 29.98 in 10.0 mi ESE 6.9 mph - N/A   Clear